Wind_Speed
13 12 11 11 11 11 12 12 12 12 12 13 16 20 23 27 29 32 34 37 40 42 43 42 42 41 43 45 45 44 43 39 27 25 26 28 28 26 24 24 24 24 24 23
9 6 6 5 6 9 11 15 18 19 19 19 22 25 27 29 31 33 36 37 38 39 40 39 39 40 42 44 46 45 41 31 21 21 23 25 24 23 24 23 23 23 23 23
4 3 4 5 6 9 11 16 19 22 24 25 26 28 30 31 32 32 33 33 33 33 35 37 39 40 42 42 42 40 37 31 27 24 21 22 23 22 23 23 22 22 22 23
6 5 4 4 5 7 9 12 15 18 21 24 26 30 33 34 34 33 31 31 31 32 34 36 38 40 41 42 41 40 36 31 29 26 22 21 21 22 22 21 21 22 23 23
6 5 3 0 2 5 7 9 10 12 14 16 18 23 25 28 30 29 29 29 30 31 34 36 39 40 42 43 43 41 37 33 30 28 26 24 23 23 24 24 23 23 23 24
5 4 1 2 4 7 9 9 9 10 11 13 14 17 20 22 23 24 26 28 30 33 36 38 41 43 44 45 45 43 41 39 36 34 32 31 30 30 30 30 29 27 26 27
3 2 1 2 4 7 9 10 10 10 12 14 16 18 20 22 20 21 22 23 27 31 35 38 42 44 47 48 48 47 46 44 43 42 40 39 38 37 36 36 36 35 33 31
7 3 2 4 6 8 10 13 14 15 17 18 20 22 22 24 24 26 28 30 32 36 39 43 46 48 50 50 51 50 50 49 48 47 47 46 46 45 43 43 42 42 41 39
11 8 5 6 8 11 14 15 16 18 19 21 23 23 24 26 28 31 33 36 39 42 45 48 51 53 54 55 55 55 54 53 52 52 52 52 52 51 50 49 48 48 48 47
12 10 8 8 10 13 15 18 19 19 22 24 26 27 28 30 32 34 37 40 43 46 49 52 55 57 59 61 61 61 61 59 58 57 56 56 57 57 56 55 54 54 53 53
11 9 10 12 14 14 16 18 20 22 23 25 28 30 32 34 36 39 42 44 46 49 52 54 57 60 62 65 68 69 69 68 67 65 63 62 61 61 61 61 60 59 58 58
10 11 13 14 15 16 18 20 21 21 23 25 29 33 35 38 41 43 46 48 50 53 55 57 60 62 65 68 70 72 72 71 69 66 63 60 58 57 58 60 62 64 63 63
11 11 12 13 15 17 19 19 20 21 23 26 31 35 38 41 43 46 48 51 53 55 58 60 63 65 67 68 68 67 65 64 61 58 55 52 49 48 48 50 54 59 63 66
12 13 12 12 13 15 16 17 19 21 24 29 32 36 38 41 44 47 50 53 55 58 61 64 66 65 63 61 59 58 57 56 55 53 51 48 45 43 41 41 42 46 52 59
13 12 13 14 15 16 16 17 20 23 27 30 33 36 40 42 46 49 52 55 58 61 63 63 61 58 56 55 54 54 54 54 53 53 51 49 47 44 41 39 39 39 41 45
12 12 13 15 17 17 16 19 23 26 28 30 33 37 40 44 47 50 53 57 59 60 60 58 56 54 53 53 53 53 53 53 53 53 52 51 50 47 45 43 42 41 40 39
11 12 13 16 18 19 19 22 26 29 31 34 38 41 44 47 49 53 57 60 61 60 57 54 53 52 52 52 53 54 54 54 54 54 53 52 52 50 48 47 45 42 41 39
12 14 17 20 22 22 24 27 30 34 36 38 41 45 48 51 53 55 58 60 58 55 53 51 51 52 53 54 56 56 57 57 56 55 55 54 53 51 50 49 48 46 44 42
17 19 23 26 27 28 29 31 34 37 39 42 44 47 49 52 52 53 57 57 54 52 51 51 53 55 56 58 59 59 59 58 57 55 54 53 52 50 49 48 46 45 44 43
20 22 24 27 28 30 32 34 37 39 41 44 46 49 51 55 56 57 57 55 51 50 51 52 55 57 58 60 61 61 59 58 56 54 52 51 51 49 47 45 44 42 42 41
19 21 24 26 28 31 34 36 38 39 43 45 49 52 56 57 59 59 56 51 49 49 51 53 56 58 60 61 61 60 58 56 54 52 49 48 48 46 45 43 41 39 39 38
20 23 25 28 30 32 35 37 39 43 45 48 51 54 55 56 58 57 53 50 48 49 52 55 57 59 60 61 60 58 56 52 48 45 43 42 41 40 40 38 37 37 36 35
21 23 26 28 30 33 35 39 43 45 47 49 51 53 55 56 57 55 51 48 48 50 53 56 59 60 60 59 58 56 52 46 42 38 35 33 31 31 32 32 32 32 32 32
21 22 24 27 29 33 36 39 42 44 46 48 51 53 54 55 56 54 50 47 48 51 54 57 59 60 58 56 55 53 48 43 38 32 27 24 22 21 22 24 26 26 26 27
21 22 24 26 29 32 35 37 40 43 45 47 49 52 54 55 55 53 49 47 47 51 54 57 59 59 57 55 53 50 45 40 34 27 21 17 14 13 13 15 17 19 20 22
22 24 26 28 30 32 35 37 40 43 46 48 50 51 53 55 55 53 48 46 47 50 54 56 58 58 56 54 52 49 46 40 33 26 20 14 8 5 6 8 11 13 15 17
Wind_Direction
249 242 235 240 243 235 228 225 231 235 232 237 240 240 244 249 258 266 271 275 277 281 284 289 293 296 298 302 305 306 307 300 274 253 249 244 247 253 263 270 276 280 280 280
227 220 228 236 245 238 233 234 233 234 239 241 241 240 244 250 258 266 271 275 277 281 285 289 294 298 304 308 310 312 315 309 291 276 265 259 257 260 267 271 275 274 274 273
205 198 211 231 254 249 245 246 242 240 242 248 255 258 261 262 265 269 272 275 278 282 287 292 296 299 303 306 310 314 311 312 309 301 286 275 269 271 275 273 272 270 270 269
219 219 242 241 257 269 266 261 259 252 250 253 260 266 269 271 271 272 273 275 278 282 286 289 292 295 299 304 309 311 312 311 309 307 297 288 280 275 275 273 271 273 272 269
240 237 245 292 343 325 312 296 286 273 265 265 268 276 283 282 278 273 272 274 276 279 282 286 289 292 296 301 305 307 308 308 307 304 298 292 287 280 280 277 274 273 271 268
266 250 239 60 13 343 332 320 302 288 284 282 286 289 302 307 290 280 277 276 275 278 281 285 289 292 296 300 303 305 306 306 304 302 295 289 286 283 279 278 276 274 270 266
304 281 297 350 354 345 333 329 318 303 303 305 303 304 310 319 311 301 301 295 291 291 291 292 294 297 300 302 304 304 304 303 300 298 294 289 285 281 278 276 274 272 269 266
43 39 345 329 324 326 326 326 325 325 323 319 315 315 316 313 311 309 309 307 305 302 300 299 299 300 301 302 302 301 300 298 296 293 290 287 284 281 277 274 272 269 267 265
16 14 333 308 307 309 312 312 315 318 319 318 318 318 315 312 311 310 310 308 307 305 303 303 303 302 302 301 300 298 297 294 291 288 285 283 280 278 276 273 270 267 265 263
356 355 331 309 302 303 303 305 306 310 314 316 317 318 318 316 316 314 312 311 309 307 306 306 305 305 304 303 301 300 297 295 291 287 284 281 278 275 273 270 268 265 263 261
343 339 321 310 306 303 303 304 305 308 310 314 316 318 318 319 318 317 315 314 312 310 309 308 307 307 306 305 303 302 300 298 295 292 288 284 279 274 271 268 265 263 261 259
336 329 317 312 310 308 307 309 310 312 313 312 315 317 320 320 319 319 318 316 314 313 312 310 309 307 306 304 303 302 301 300 299 297 295 291 286 279 273 268 263 260 258 256
331 325 318 314 311 309 310 312 314 315 314 313 314 317 320 320 320 320 319 317 315 314 313 311 309 307 306 305 304 303 302 301 301 300 298 295 291 285 278 271 263 258 255 254
331 328 326 321 315 317 318 317 315 314 313 313 316 319 322 322 322 321 319 318 316 315 314 312 310 308 307 306 305 304 302 301 300 299 297 295 292 289 285 280 272 263 256 253
335 337 337 333 332 337 330 320 318 319 320 321 322 323 324 324 323 322 320 319 318 316 314 312 310 309 308 307 306 304 302 300 298 296 294 292 289 286 283 280 277 274 269 261
337 343 344 343 342 345 337 328 325 324 325 325 325 325 326 326 326 324 321 320 319 317 315 314 313 311 310 308 306 304 301 298 296 293 291 288 285 282 280 277 274 272 270 268
340 346 348 348 346 342 338 334 330 329 331 331 331 331 330 330 330 327 324 323 322 320 318 316 315 314 312 309 307 304 301 298 295 291 289 286 283 280 278 275 273 270 268 265
347 349 349 347 344 344 341 338 336 335 336 336 335 334 333 333 333 330 326 324 323 321 320 319 317 315 313 311 308 305 301 297 293 290 286 284 281 278 276 273 270 268 266 263
351 349 346 343 342 341 340 341 339 338 339 337 336 336 335 333 332 331 328 326 325 325 324 322 320 318 316 313 310 307 303 298 294 289 285 282 279 276 274 271 268 265 263 260
347 343 338 335 336 338 340 341 340 339 338 338 337 336 336 336 336 335 332 330 329 328 326 325 323 321 318 316 313 310 306 301 296 290 285 281 278 274 271 268 265 262 260 257
337 333 330 331 335 337 339 340 339 338 340 339 339 340 340 339 337 336 334 333 331 330 329 328 327 325 323 321 318 316 312 306 300 294 287 281 276 272 268 264 262 259 256 254
330 328 328 332 334 337 338 338 340 342 342 342 342 340 339 338 338 337 336 335 334 334 333 332 332 330 328 326 324 322 318 312 306 300 293 285 277 270 265 260 257 255 253 250
327 326 326 329 331 333 337 341 343 343 342 341 340 339 339 340 340 339 338 338 338 338 337 337 337 336 335 333 331 330 327 322 316 308 300 291 280 270 262 256 251 249 248 245
323 321 323 325 329 335 340 342 342 341 340 339 339 340 340 341 342 342 341 341 341 342 342 342 343 343 342 342 342 340 338 334 329 321 312 301 286 271 259 251 246 243 242 240
319 319 322 326 332 336 338 339 339 340 340 340 341 341 342 344 344 344 343 343 344 345 346 347 349 350 350 350 351 352 351 349 344 338 330 317 299 277 257 246 239 236 234 233
319 321 325 329 331 333 336 338 340 341 341 341 343 344 345 345 345 345 345 345 346 348 349 351 353 355 356 356 357 359 359 359 359 358 355 350 338 306 257 240 231 225 225 225
Height
5873 5875 5874 5874 5874 5875 5875 5875 5875 5875 5876 5875 5873 5872 5872 5871 5870 5869 5867 5866 5863 5862 5859 5857 5854 5850 5846 5839 5831 5823 5818 5811 5807 5809 5811 5812 5815 5818 5820 5820 5820 5820 5820 5819
5871 5871 5872 5872 5872 5872 5871 5871 5871 5872 5872 5871 5869 5869 5868 5868 5867 5866 5863 5860 5858 5856 5853 5851 5848 5843 5838 5833 5828 5824 5817 5808 5804 5805 5806 5809 5810 5811 5813 5813 5813 5813 5813 5813
5868 5870 5869 5869 5869 5869 5868 5868 5868 5868 5868 5868 5866 5866 5864 5864 5863 5861 5858 5855 5852 5849 5847 5845 5842 5837 5834 5830 5826 5822 5817 5809 5805 5805 5804 5804 5805 5805 5806 5806 5806 5806 5806 5806
5866 5867 5867 5866 5866 5865 5865 5865 5864 5864 5864 5864 5864 5861 5859 5858 5857 5856 5853 5850 5848 5845 5842 5840 5836 5833 5828 5824 5820 5816 5812 5808 5805 5802 5800 5799 5799 5799 5799 5799 5799 5799 5798 5798
5865 5866 5866 5865 5865 5864 5863 5862 5861 5861 5860 5860 5859 5857 5855 5852 5850 5849 5847 5844 5842 5840 5837 5833 5830 5826 5821 5817 5813 5809 5805 5803 5800 5797 5795 5793 5792 5792 5792 5791 5791 5791 5791 5791
5866 5865 5865 5864 5864 5863 5861 5860 5859 5858 5857 5857 5855 5853 5851 5846 5843 5842 5840 5837 5835 5832 5829 5825 5821 5817 5812 5808 5804 5800 5797 5794 5791 5789 5787 5786 5785 5784 5783 5783 5783 5783 5783 5783
5865 5864 5864 5863 5862 5862 5860 5859 5858 5856 5854 5853 5851 5849 5847 5843 5838 5836 5834 5831 5828 5824 5820 5815 5811 5807 5802 5797 5793 5790 5787 5784 5782 5780 5778 5776 5775 5774 5774 5773 5772 5772 5772 5773
5864 5864 5863 5861 5860 5859 5858 5857 5856 5853 5851 5849 5846 5844 5843 5838 5834 5831 5828 5824 5820 5816 5811 5805 5800 5795 5790 5786 5782 5779 5776 5773 5770 5768 5766 5764 5762 5762 5761 5761 5760 5760 5760 5761
5863 5863 5862 5860 5858 5857 5856 5854 5853 5851 5848 5845 5842 5840 5837 5833 5829 5824 5820 5815 5810 5805 5799 5793 5787 5781 5776 5771 5768 5764 5761 5759 5756 5753 5750 5748 5746 5746 5745 5745 5746 5746 5746 5747
5862 5861 5860 5859 5857 5856 5854 5852 5850 5847 5844 5841 5838 5834 5831 5827 5822 5818 5812 5807 5801 5795 5788 5781 5774 5767 5760 5754 5748 5744 5741 5738 5736 5734 5732 5729 5727 5726 5726 5726 5727 5728 5729 5730
5861 5861 5859 5857 5855 5854 5852 5850 5846 5844 5841 5837 5833 5832 5826 5821 5817 5811 5805 5799 5792 5785 5778 5771 5763 5755 5747 5738 5729 5722 5716 5713 5710 5708 5707 5706 5704 5703 5703 5703 5704 5706 5708 5710
5861 5860 5857 5855 5853 5851 5849 5846 5843 5841 5837 5833 5829 5827 5820 5815 5809 5803 5796 5789 5782 5774 5767 5759 5750 5741 5732 5723 5714 5704 5696 5689 5685 5681 5679 5677 5676 5676 5677 5678 5679 5681 5684 5687
5860 5858 5856 5853 5853 5849 5846 5843 5840 5837 5833 5828 5824 5823 5815 5808 5801 5795 5788 5780 5771 5763 5755 5746 5737 5727 5718 5708 5698 5689 5681 5673 5666 5661 5658 5655 5652 5651 5651 5651 5653 5655 5658 5662
5858 5855 5853 5851 5848 5845 5842 5839 5836 5833 5829 5824 5819 5814 5809 5802 5794 5787 5778 5769 5760 5751 5742 5732 5722 5712 5703 5693 5684 5675 5667 5659 5653 5647 5643 5639 5636 5633 5632 5631 5630 5632 5633 5637
5856 5854 5850 5847 5844 5842 5839 5835 5832 5829 5824 5820 5814 5808 5801 5794 5786 5777 5768 5758 5749 5739 5728 5718 5708 5698 5689 5680 5671 5663 5655 5647 5640 5634 5629 5625 5622 5619 5617 5616 5615 5614 5615 5616
5854 5852 5849 5846 5843 5840 5837 5833 5829 5825 5820 5815 5809 5802 5795 5787 5778 5768 5758 5747 5737 5726 5714 5704 5694 5684 5675 5666 5658 5649 5641 5633 5625 5619 5613 5609 5605 5603 5601 5600 5600 5599 5600 5600
5852 5850 5847 5845 5841 5838 5835 5830 5825 5819 5814 5808 5800 5794 5785 5777 5768 5756 5744 5732 5721 5710 5700 5690 5680 5671 5661 5652 5643 5634 5625 5617 5609 5602 5596 5592 5588 5585 5584 5583 5583 5583 5584 5585
5851 5848 5844 5841 5840 5835 5833 5825 5819 5812 5806 5799 5792 5784 5774 5765 5756 5745 5732 5720 5709 5698 5687 5677 5667 5658 5648 5637 5627 5617 5608 5599 5590 5583 5578 5573 5569 5567 5565 5565 5565 5566 5568 5570
5847 5844 5840 5837 5833 5830 5826 5820 5813 5806 5799 5792 5784 5775 5766 5757 5748 5738 5723 5710 5697 5686 5675 5665 5655 5644 5633 5621 5609 5598 5587 5577 5569 5562 5556 5552 5549 5547 5546 5546 5547 5549 5551 5554
5844 5841 5838 5834 5830 5825 5822 5814 5806 5800 5793 5785 5776 5768 5758 5746 5735 5726 5712 5699 5687 5676 5665 5654 5643 5630 5617 5604 5590 5577 5565 5554 5546 5539 5534 5531 5528 5527 5527 5528 5530 5532 5535 5538
5843 5840 5836 5831 5826 5821 5815 5808 5802 5796 5789 5778 5768 5757 5746 5735 5725 5714 5702 5690 5678 5667 5656 5644 5631 5617 5602 5587 5572 5558 5544 5532 5523 5516 5511 5508 5507 5506 5508 5511 5513 5516 5519 5523
5840 5836 5831 5826 5820 5817 5810 5803 5796 5789 5779 5769 5759 5749 5740 5730 5718 5705 5693 5681 5670 5659 5647 5634 5620 5605 5588 5571 5555 5540 5525 5513 5503 5495 5490 5487 5486 5487 5490 5494 5498 5502 5506 5510
5836 5832 5826 5822 5818 5811 5804 5796 5788 5779 5771 5763 5754 5745 5734 5723 5711 5698 5686 5674 5663 5651 5638 5624 5609 5593 5576 5558 5541 5525 5510 5497 5487 5480 5474 5471 5470 5472 5475 5479 5484 5489 5493 5498
5832 5827 5823 5817 5812 5805 5798 5791 5783 5776 5768 5760 5750 5739 5728 5717 5704 5691 5679 5668 5656 5645 5631 5617 5601 5584 5567 5549 5532 5514 5499 5487 5477 5469 5464 5461 5460 5462 5464 5468 5473 5478 5483 5488
5827 5822 5818 5813 5807 5801 5795 5788 5782 5774 5765 5756 5746 5734 5722 5710 5698 5685 5673 5662 5651 5639 5625 5610 5594 5577 5559 5543 5526 5510 5495 5482 5472 5464 5459 5456 5455 5456 5458 5462 5466 5471 5475 5480
5821 5817 5812 5808 5803 5797 5791 5784 5777 5768 5759 5750 5739 5729 5717 5704 5692 5679 5668 5657 5646 5634 5621 5606 5590 5574 5557 5541 5525 5510 5495 5483 5472 5464 5459 5456 5455 5455 5457 5460 5463 5467 5471 5475